This is the latest recevied weather packets stored in our database for station/object I0UVN-10. If no packets are shown the sender has not sent any weather packets the latest 10 day(s).
| Time | Temp. | Humidity | Pressure | Rain* | Wind** | Luminosity | Snow |
|---|---|---|---|---|---|---|---|
| 1787918414 | 32.22° C | 48% | 1021.1 hPa | - | - | - | - |
| 1787917213 | 32.22° C | 51% | 1021.2 hPa | - | - | - | - |
| 1787916013 | 32.22° C | 50% | 1021.1 hPa | - | - | - | - |
| 1787914813 | 32.22° C | 50% | 1021.3 hPa | - | - | - | - |
| 1787913613 | 32.22° C | 47% | 1021.4 hPa | - | - | - | - |
| 1787912416 | 32.22° C | 42% | 1021.6 hPa | - | - | - | - |
| 1787912221 | 32.22° C | 43% | 1021.7 hPa | - | - | - | - |
| 1787911030 | 31.67° C | 44% | 1021.8 hPa | - | - | - | - |
| 1787909830 | 31.11° C | 47% | 1022 hPa | - | - | - | - |
| 1787908629 | 31.11° C | 48% | 1022.3 hPa | - | - | - | - |
| 1787907429 | 31.11° C | 49% | 1022.5 hPa | - | - | - | - |
| 1787906229 | 30.56° C | 50% | 1022.5 hPa | - | - | - | - |
| 1787905029 | 30.56° C | 49% | 1022.4 hPa | - | - | - | - |
| 1787903830 | 30° C | 49% | 1022.3 hPa | - | - | - | - |
| 1787902629 | 30° C | 50% | 1022.4 hPa | - | - | - | - |
| 1787901430 | 29.44° C | 50% | 1022.3 hPa | - | - | - | - |
| 1787900228 | 28.89° C | 49% | 1022.4 hPa | - | - | - | - |
| 1787899028 | 28.89° C | 49% | 1022.5 hPa | - | - | - | - |
| 1787897828 | 28.33° C | 51% | 1022.5 hPa | - | - | - | - |
| 1787896627 | 28.33° C | 50% | 1022.7 hPa | - | - | - | - |
| 1787895428 | 27.78° C | 50% | 1022.7 hPa | - | - | - | - |
| 1787894227 | 28.33° C | 50% | 1022.7 hPa | - | - | - | - |
| 1787893028 | 27.78° C | 50% | 1022.6 hPa | - | - | - | - |
| 1787891827 | 27.78° C | 50% | 1022.4 hPa | - | - | - | - |
| 1787890632 | 28.33° C | 50% | 1022.1 hPa | - | - | - | - |
* Rain since midnight (hover to see other rain measurements)
** Current wind speed in m/s (hover to see current wind gust speed)